Date,TemperatureHighF,TemperatureAvgF,TemperatureLowF,DewpointHighF,DewpointAvgF,DewpointLowF,HumidityHigh,HumidityAvg,HumidityLow,PressureMaxIn,PressureMinIn,WindSpeedMaxMPH,WindSpeedAvgMPH,GustSpeedMaxMPH,PrecipitationSumIn
2013-1-1,60.4,51.0,41.4,57.7,39.2,26.6,91,66,38,29.41,29.20,6,2,13,0.08
2013-1-2,44.8,40.6,36.0,27.5,16.2,12.9,57,37,28,29.50,29.44,5,2,11,0.00
2013-1-3,46.6,41.4,35.6,21.2,15.6,13.1,53,35,28,29.59,29.53,6,2,11,0.00
2013-1-4,43.2,40.1,37.6,33.8,28.7,15.1,77,65,32,29.71,29.59,5,2,11,0.08
2013-1-5,59.0,44.9,33.6,34.3,29.6,24.6,78,58,28,29.59,29.41,1,0,9,0.00
2013-1-6,59.7,42.4,29.3,33.3,20.0,10.9,84,48,19,29.56,29.50,6,2,14,0.00
2013-1-7,56.8,42.8,29.3,25.0,20.4,15.8,62,43,26,29.50,29.29,4,0,8,0.00
2013-1-8,56.7,55.3,52.3,54.1,52.7,49.8,91,91,90,29.12,29.09,0,0,0,0.36
2013-1-9,65.5,58.0,49.8,52.9,48.8,41.0,92,73,43,29.26,29.09,6,0,13,1.58
2013-1-10,67.3,53.9,42.3,47.7,32.2,22.6,91,51,20,29.26,29.20,12,2,20,0.00
2013-1-11,71.8,54.8,38.8,56.5,40.0,30.4,87,60,32,29.20,29.06,4,1,10,0.00
2013-1-27,70.3,69.9,69.4,56.7,53.8,50.2,64,57,49,29.32,29.26,4,4,9,0.00
2013-1-28,75.7,71.1,68.5,61.0,54.2,44.6,75,57,33,29.32,29.17,5,3,10,0.00
2013-1-29,81.1,70.6,69.3,59.9,56.3,36.3,72,62,20,29.17,28.88,5,3,10,0.00
2013-2-4,78.4,61.8,52.7,42.3,37.3,32.5,66,43,21,29.12,29.06,1,0,6,0.00
2013-2-5,80.6,62.7,46.4,46.6,32.6,20.5,82,41,14,29.23,29.09,3,0,9,0.00
2013-2-6,77.4,65.4,59.7,55.6,44.0,31.1,77,49,23,0.00,40.00,3,1,8,0.00
2013-2-7,79.7,65.9,58.6,57.2,43.9,23.9,85,51,21,0.00,40.00,4,1,10,0.00
2013-2-8,70.3,59.2,48.0,28.6,22.2,14.7,40,25,17,0.00,40.00,8,3,15,0.00
2013-2-9,68.4,59.0,48.6,65.1,48.8,17.4,90,72,27,29.06,29.03,4,1,8,0.00
2013-2-10,69.3,64.4,57.7,63.3,33.8,17.6,86,39,17,29.20,29.03,5,2,13,0.00
2013-2-11,59.7,55.8,51.1,47.5,29.2,20.5,86,39,24,29.26,29.17,6,0,13,0.00
2013-2-12,72.9,59.6,50.9,54.1,35.7,15.3,91,53,16,29.26,29.06,6,2,14,0.00
2013-2-13,66.2,50.4,36.5,21.4,15.7,9.0,42,26,17,29.35,29.23,4,1,11,0.00
2013-2-14,72.1,50.6,30.4,34.0,19.5,12.6,64,33,16,29.35,29.23,4,1,10,0.00
2013-2-15,67.6,50.8,35.6,36.0,21.6,10.6,75,35,17,29.59,29.29,7,3,16,0.00
2013-2-16,66.9,49.6,29.5,21.2,12.9,4.3,40,23,17,29.65,29.44,4,1,12,0.00
2013-2-17,71.6,55.1,31.8,35.8,21.3,5.9,46,28,17,29.44,29.20,5,2,12,0.00
2013-2-18,81.3,66.9,59.0,47.3,34.0,16.9,55,33,14,29.32,29.12,6,3,14,0.00
2013-2-19,67.6,57.9,45.5,21.4,17.3,10.9,28,21,17,29.44,29.29,9,4,15,0.00
2013-2-20,68.2,59.9,53.4,61.0,41.0,15.3,83,53,19,29.35,28.94,5,3,10,0.00
2013-2-21,77.7,67.5,49.1,59.7,35.6,9.7,73,38,15,29.09,28.85,10,3,19,0.00
2013-2-22,64.9,53.6,43.5,24.6,18.4,10.0,37,25,18,29.23,29.09,7,4,13,0.00
2013-2-23,49.5,44.8,41.0,16.7,14.1,12.2,33,29,26,29.23,29.20,5,2,9,0.00
2013-2-25,51.4,49.1,47.1,12.7,11.0,10.0,22,21,21,29.09,29.03,13,9,24,0.00
2013-2-26,67.6,52.8,39.4,21.4,14.2,7.7,29,22,17,29.17,29.09,6,3,15,0.00
2013-2-27,64.4,52.4,39.7,19.9,14.9,7.5,39,23,17,29.44,29.12,9,3,17,0.00
2013-2-28,61.3,48.9,35.2,18.7,11.8,6.3,30,22,17,29.53,29.41,7,2,14,0.00
2013-3-1,70.3,50.4,28.6,23.5,14.2,4.8,42,25,16,29.50,29.32,7,1,14,0.00
2013-3-2,65.8,50.0,35.8,21.2,13.4,4.1,31,23,18,29.62,29.47,7,2,15,0.00
2013-3-3,77.4,54.8,30.7,26.1,19.0,9.5,43,27,15,29.47,29.20,5,2,13,0.00
2013-3-4,88.5,65.0,42.4,45.7,28.3,19.0,70,29,13,29.20,28.97,4,1,11,0.00
2013-3-5,66.7,56.9,49.6,51.1,22.6,15.3,84,29,17,29.50,29.03,11,6,23,0.00
2013-3-8,68.2,65.3,61.5,60.3,52.6,45.3,81,65,46,29.38,29.26,4,1,9,0.04
2013-3-9,78.1,67.6,62.8,65.3,54.1,43.9,89,65,30,29.29,28.94,7,2,13,0.04
2013-3-10,67.8,60.5,44.1,58.1,26.8,12.6,89,31,17,29.35,28.94,8,3,28,0.00
2013-3-11,70.5,50.8,35.1,23.5,18.3,11.7,52,30,17,29.35,29.20,7,2,14,0.00
2013-3-12,80.8,56.6,32.7,28.6,21.1,15.1,53,29,14,29.44,29.23,4,1,12,0.00
2013-3-13,79.2,59.9,39.9,34.5,24.4,15.8,57,29,15,29.59,29.44,3,1,13,0.00
2013-3-14,80.6,61.9,41.4,39.9,27.7,15.1,57,30,14,29.59,29.47,4,2,10,0.00
2013-3-15,82.4,65.8,47.7,53.6,34.1,23.0,83,37,14,29.50,29.26,5,2,11,0.00
2013-3-16,86.4,68.8,54.9,54.5,40.6,28.2,80,42,13,29.26,29.03,5,2,10,0.00
2013-3-17,87.8,73.0,65.1,52.5,44.5,32.2,63,40,15,29.12,28.97,4,2,10,0.00
2013-3-18,93.7,75.1,62.2,61.0,42.9,23.0,81,42,11,29.20,29.00,7,2,17,0.00
2013-3-19,84.2,68.4,51.6,46.0,34.6,25.2,43,29,19,29.23,29.09,4,2,10,0.00
2013-3-20,73.2,63.7,53.6,48.9,30.0,17.4,48,30,16,29.44,29.20,10,5,20,0.00
2013-3-21,75.9,65.2,53.1,49.1,33.9,21.7,55,32,23,29.26,28.91,5,2,11,0.00
2013-3-22,86.7,69.7,65.5,63.1,54.6,39.0,86,64,19,29.00,28.91,3,1,8,0.00
2013-3-26,69.3,60.2,48.4,22.6,16.7,8.1,20,18,16,29.68,29.47,3,1,8,0.00
2013-3-27,69.3,55.1,34.2,32.7,21.4,9.1,42,28,19,29.53,29.38,4,2,9,0.00
2013-3-28,70.3,64.0,58.3,44.2,39.1,32.5,52,40,32,29.44,29.35,5,2,10,0.00
2013-3-29,79.5,68.1,55.8,57.4,41.9,32.2,80,44,20,29.41,29.32,4,2,10,0.00
2013-3-30,87.3,72.6,64.6,54.9,45.4,34.2,69,42,18,29.38,29.20,4,2,10,0.00
2013-3-31,84.9,69.6,61.7,57.6,49.9,37.0,73,53,20,29.26,29.14,8,1,14,0.00
2013-4-1,89.8,72.6,61.3,58.1,47.8,34.9,81,49,15,29.32,29.20,6,1,10,0.00
2013-4-2,81.0,70.4,56.5,61.2,49.9,41.5,80,51,25,29.26,29.09,9,3,31,0.87
2013-4-3,58.3,54.5,50.0,54.1,43.7,34.5,88,67,53,29.32,29.03,7,1,14,0.68
2013-4-4,67.1,54.7,46.9,36.1,29.1,24.8,64,40,22,29.41,29.26,6,1,15,0.00
2013-4-5,76.5,55.1,38.5,40.8,30.1,24.6,80,43,18,29.47,29.29,1,0,6,0.00
2013-4-6,83.3,66.6,52.0,48.9,38.2,32.7,74,40,19,29.32,29.14,4,2,10,0.00
2013-4-7,87.6,70.8,61.0,53.8,46.1,36.0,70,46,18,29.17,29.06,4,2,11,0.00
2013-4-8,76.1,70.3,66.7,59.4,51.9,46.2,73,53,35,29.14,28.97,4,2,10,0.00
2013-4-9,90.5,76.2,69.8,59.4,51.4,40.6,69,45,18,29.03,28.88,5,2,13,0.00
2013-4-10,73.8,60.6,47.1,63.0,39.8,26.2,78,47,29,29.14,28.97,10,4,17,0.24
2013-4-11,74.3,57.2,45.7,32.2,24.5,17.6,56,30,16,29.20,29.06,2,0,8,0.00
2013-4-12,84.6,62.0,41.2,40.3,29.9,23.2,71,36,13,29.23,29.12,1,0,8,0.00
2013-4-16,77.5,74.3,72.0,64.0,56.3,46.2,76,55,33,29.14,29.09,4,2,10,0.00
2013-4-17,81.5,75.2,72.0,68.5,59.5,47.1,86,60,30,29.14,28.94,4,2,10,0.00
2013-4-18,75.0,64.8,54.1,61.7,40.7,17.8,76,45,20,29.29,28.91,8,4,19,0.32
2013-4-19,70.5,57.0,41.2,23.5,19.0,13.5,44,24,17,29.50,29.29,9,3,17,0.00
2013-4-20,77.7,57.9,34.9,31.1,22.9,18.3,56,29,15,29.44,29.23,4,1,10,0.00
2013-4-21,84.9,66.9,51.3,42.1,35.0,30.4,56,34,16,29.38,29.23,4,1,10,0.00
2013-4-22,87.4,71.8,59.9,55.2,43.1,33.3,75,41,16,29.38,29.17,3,1,10,0.00
2013-4-23,79.7,62.1,55.0,46.8,29.8,25.0,36,30,24,29.29,29.20,7,5,16,0.00
2013-4-24,62.2,54.3,46.6,26.4,21.4,16.9,42,28,19,29.47,29.29,9,6,20,0.00
2013-4-25,68.9,61.4,56.8,33.4,24.4,21.2,34,24,20,29.50,29.41,6,1,14,0.00
2013-4-26,82.9,68.4,58.8,68.0,49.0,33.1,86,53,29,29.44,29.29,3,1,9,0.00
2013-4-28,87.1,77.6,64.2,60.3,42.7,35.6,87,32,19,29.26,29.12,1,0,6,0.00
2013-4-29,90.0,73.7,66.6,64.2,52.5,37.4,83,55,17,29.20,29.03,6,1,13,0.24
2013-4-30,86.9,73.7,65.5,66.4,51.2,37.2,87,52,19,29.12,28.97,2,0,6,0.00
2013-5-1,89.8,77.5,67.6,62.4,49.8,39.2,76,43,18,29.17,29.06,2,0,8,0.00
2013-5-2,75.7,57.6,49.6,55.4,34.9,18.5,78,44,28,29.56,29.09,14,2,28,0.68
2013-5-3,68.5,55.7,45.1,23.7,18.5,14.4,42,24,17,29.56,29.29,9,3,16,0.00
2013-5-4,83.7,56.4,39.4,29.5,23.8,19.6,59,32,14,29.32,29.14,7,1,13,0.00
2013-5-5,80.4,63.9,47.7,31.3,26.7,22.8,48,26,15,29.35,29.20,5,2,13,0.00
2013-5-6,77.4,63.5,47.3,39.4,32.5,27.7,65,34,18,29.35,29.26,3,0,9,0.00
2013-5-7,89.1,69.5,48.6,46.9,35.6,25.5,74,35,13,29.29,29.20,3,1,8,0.00
2013-5-8,87.8,73.1,62.6,56.8,45.0,35.6,71,40,18,29.29,29.17,4,2,8,0.00
2013-5-9,82.9,73.6,63.0,61.0,53.4,41.5,72,50,31,29.26,29.12,8,2,17,0.04
2013-5-10,85.8,71.3,61.7,62.8,48.1,35.1,88,50,19,29.26,29.09,8,2,19,0.16
2013-5-11,81.0,71.3,62.1,54.0,41.1,30.0,72,39,17,29.38,29.26,6,2,17,0.00
2013-5-12,79.0,69.0,57.7,35.6,30.7,26.1,40,25,15,29.47,29.35,6,2,14,0.00
2013-5-13,88.5,71.1,50.7,38.8,34.4,27.9,56,29,13,29.50,29.41,2,0,8,0.00
2013-5-14,87.4,73.8,57.9,55.2,42.0,32.4,66,35,18,29.47,29.26,5,2,10,0.00
2013-5-15,90.3,76.5,69.8,65.1,53.0,40.5,76,48,18,29.38,29.12,6,3,16,0.00
2013-5-16,99.5,80.6,71.1,63.3,53.2,38.7,67,44,13,29.12,28.97,5,3,10,0.00
2013-5-17,99.9,83.1,73.8,64.2,53.3,41.7,69,41,15,29.17,29.06,4,2,8,0.00
2013-5-18,96.6,81.5,71.1,64.8,49.1,35.8,76,39,14,29.20,29.09,6,2,12,0.00
2013-5-19,95.9,81.7,72.0,61.2,49.7,39.7,68,37,17,29.17,29.00,5,2,10,0.00
2013-5-20,95.5,81.7,70.9,65.3,51.9,39.7,77,43,16,29.14,29.00,5,2,10,0.00
2013-5-21,93.0,81.4,72.5,65.3,51.8,38.8,75,41,18,29.14,29.00,6,2,14,0.00
2013-5-22,95.4,79.1,62.8,53.2,41.1,32.9,43,27,16,29.20,29.09,6,1,12,0.00
2013-5-23,95.4,82.0,73.6,63.1,51.9,40.5,69,40,16,29.29,29.14,4,1,12,0.00
2013-5-24,78.4,73.1,68.0,66.7,62.3,46.8,86,70,38,29.35,29.26,7,1,13,0.48
2013-5-25,74.7,70.8,68.2,68.7,65.0,59.4,89,82,68,29.41,29.26,3,1,14,2.12
2013-5-26,87.6,81.1,73.6,68.9,53.7,45.0,84,42,25,29.35,29.26,4,1,9,0.04
2013-6-21,99.3,90.0,77.7,64.2,42.6,30.4,63,22,11,29.35,29.23,4,3,13,0.00
2013-6-22,100.8,85.8,74.3,66.4,49.3,34.7,74,35,12,29.32,29.17,4,2,10,0.00
2013-6-23,97.9,84.6,75.2,66.7,49.0,31.5,73,36,11,29.26,29.17,4,2,9,0.00
2013-6-24,100.2,85.1,75.7,65.3,50.3,35.8,69,36,13,29.29,29.17,5,3,11,0.00
2013-6-25,101.5,86.3,75.9,64.0,49.5,37.8,66,34,12,29.29,29.17,5,3,11,0.00
2013-6-26,103.3,87.2,75.2,64.8,49.4,35.6,69,33,12,29.26,29.14,4,2,12,0.00
2013-6-27,104.4,86.8,74.7,62.6,50.1,30.9,63,35,11,29.29,29.17,3,1,7,0.00
2013-7-15,82.8,81.0,79.9,57.9,55.5,52.3,47,42,35,29.23,29.23,0,0,6,0.00
2013-7-16,89.2,77.0,70.9,69.4,60.5,47.5,85,60,24,29.38,29.29,6,1,16,0.59
2013-7-17,90.3,76.4,71.6,68.7,59.4,40.6,86,61,18,29.44,29.35,6,1,12,0.00
2013-7-18,96.3,80.5,71.2,66.9,53.4,37.2,83,48,14,29.44,29.26,4,0,10,0.00
2013-7-19,99.0,82.6,69.4,71.6,50.5,35.8,84,42,13,29.35,29.17,1,0,8,0.00
2013-7-20,99.3,83.3,71.2,68.9,50.0,35.4,79,38,13,29.29,29.14,2,0,6,0.00
2013-7-21,96.6,84.0,75.4,69.1,52.8,39.6,75,39,14,29.23,29.14,3,0,9,0.00
2013-7-22,97.0,82.3,77.4,68.2,59.0,41.9,71,50,16,29.29,29.23,3,1,10,0.00
2013-10-30,79.0,76.5,75.4,66.2,63.5,56.5,73,65,46,29.20,29.12,2,1,8,0.04
2013-10-31,82.4,76.6,70.7,67.8,50.0,23.4,83,50,14,29.14,29.06,8,2,17,0.12